Location: Cicognara
(44.9500°N, 10.4667°E)
Time: 09:00:13
(UTC+00:00)

Cosmos 2333 Rocket - Visible Passes

Search period start: 28 October 2021 00:00
Search period end: 07 November 2021 00:00
Orbit: 839 x 863 km, 70.8° (Epoch: 27 October)

Date Brightness Start Highest point End Pass type
(mag) Time Alt. Az. Time Alt. Az. Time Alt. Az.
28 Oct 3.4 02:42:17 32° NNE 02:44:04 40° NE 02:49:28 10° SE visible
28 Oct 2.8 04:24:24 16° NW 04:28:16 35° WSW 04:33:25 10° S visible
28 Oct 2.3 17:33:28 10° S 17:38:57 54° ESE 17:44:32 10° NE visible
28 Oct 4.0 19:18:43 10° WSW 19:23:33 28° NW 19:26:47 17° N visible
29 Oct 3.4 02:32:03 40° ENE 02:32:03 40° ENE 02:37:14 10° SE visible
29 Oct 2.8 04:14:11 28° WNW 04:16:02 35° WSW 04:21:11 10° S visible
29 Oct 2.3 17:21:14 10° S 17:26:43 54° ESE 17:32:17 10° NE visible
29 Oct 4.0 19:06:29 10° WSW 19:11:19 28° NW 19:15:28 13° N visible
30 Oct 3.9 02:21:54 28° ESE 02:21:54 28° ESE 02:25:00 10° SE visible
30 Oct 2.8 04:04:02 35° WSW 04:04:02 35° WSW 04:08:57 10° S visible
30 Oct 2.3 17:08:59 10° S 17:14:29 54° ESE 17:20:03 10° NE visible
30 Oct 4.0 18:54:15 10° WSW 18:59:05 28° NW 19:03:58 10° N visible
31 Oct 4.6 02:11:45 15° ESE 02:11:45 15° ESE 02:12:45 10° SE visible
31 Oct 3.4 03:53:52 25° SSW 03:53:52 25° SSW 03:56:43 10° S visible
31 Oct 2.4 16:56:45 10° S 17:02:15 54° ESE 17:07:50 10° NE visible
31 Oct 4.0 18:42:02 10° WSW 18:46:51 28° NW 18:51:44 10° N visible
01 Nov 4.2 03:43:40 14° SSW 03:43:40 14° SSW 03:44:29 10° S visible
01 Nov 2.4 16:44:31 10° S 16:50:01 54° ESE 16:55:35 10° NE visible
01 Nov 4.1 18:29:47 10° WSW 18:34:37 28° NW 18:39:30 10° N visible
02 Nov 2.4 16:32:17 10° S 16:37:47 54° ESE 16:43:21 10° NE visible
02 Nov 4.1 18:17:34 10° WSW 18:22:23 28° NW 18:27:16 10° N visible
03 Nov 4.1 18:05:19 10° WSW 18:10:09 28° NW 18:15:02 10° N visible
04 Nov 4.1 17:53:05 10° WSW 17:57:54 28° NW 18:02:48 10° N visible
05 Nov 4.1 17:40:51 10° WSW 17:45:41 28° NW 17:50:33 10° N visible
06 Nov 4.1 17:28:36 10° WSW 17:33:27 28° NW 17:38:19 10° N visible
